Location: McDonald Observatory
(30.6717°N, 104.0221°W)
Time: 05:22:50
(UTC-05:00)

Daily predictions for brighter satellites

Satellite Brightness Start Highest point End
(mag) Time Altitude Azimuth Time Altitude Azimuth Time Altitude Azimuth
USA 215 4.4 04:41:46 10° ESE 04:47:39 37° NE 04:48:46 34° NNE
FALCON 9 R/B 3.6 04:54:19 42° ESE 04:54:19 42° ESE 05:04:23 10° ENE
ATLAS 5 CENTAUR R/B 4.4 04:59:18 19° SE 04:59:18 19° SE 05:01:02 10° SE
CZ-3A R/B 4.3 04:59:44 45° S 04:59:44 45° S 05:05:27 10° ESE
CZ-4B R/B 4.3 05:03:36 10° NNE 05:08:27 40° E 05:08:27 40° E
NOSS 3-2 (C) 4.1 05:11:48 67° SSE 05:11:48 67° SSE 05:18:40 10° SSE
SL-16 R/B 2.8 05:22:12 10° N 05:27:46 55° ENE 05:33:17 10° SE
Okean O Rocket 4.0 05:26:54 10° NNE 05:27:49 16° NNE 05:27:49 16° NNE
Cosmos 2297 Rocket 4.2 05:43:09 15° NNW 05:43:09 15° NNW 05:44:27 10° N
CZ-4B R/B 4.4 05:38:19 10° NNE 05:40:52 34° NNE 05:40:52 34° NNE
Cosmos 2228 4.1 05:39:10 10° N 05:43:20 43° E 05:47:27 10° SSE
BREEZE-M DEB (TANK) 3.6 05:47:01 71° S 05:47:27 78° SE 06:03:09 10° NE
Delta 142 4.0 06:00:17 52° S 06:00:17 52° S 06:04:26 10° ESE
Cosmos 2100 Rocket 3.9 05:56:06 10° N 06:02:19 69° W 06:08:36 10° S
OAO 2 Rocket 3.6 06:05:13 51° NW 06:06:08 59° N 06:11:24 10° ENE
Cosmos 1802 Rocket 3.8 06:01:31 10° N 06:07:39 80° W 06:13:45 10° S
Cosmos 2263 Rocket 4.0 06:06:17 10° SSE 06:11:06 31° ESE 06:15:54 10° NE
Cosmos 990 Rocket 4.0 06:10:57 52° W 06:11:29 54° WNW 06:16:38 10° N
Cosmos 2061 Rocket 3.9 06:05:21 10° NNW 06:11:37 65° W 06:17:56 10° S
ADEOS II 2.1 06:06:20 10° NNE 06:11:38 82° ESE 06:16:52 10° S
GOES 2 Rocket 3.9 06:11:57 45° WSW 06:13:25 59° S 06:20:17 10° ESE
CZ-4B DEB 4.4 06:09:47 10° N 06:15:02 47° WNW 06:16:09 41° WSW
Tiangong 1 3.8 06:24:41 10° N 06:25:43 11° NNE 06:26:51 10° NE
Cosmos 1515 3.6 06:25:47 42° SW 06:26:48 59° W 06:30:34 10° N
USA 215 3.4 06:24:05 10° SSE 06:30:25 52° SW 06:36:10 13° NW
Thor Agena Rocket 3.5 06:26:15 10° S 06:31:29 67° WSW 06:36:46 10° NNW
Cosmos 2016 Rocket 4.0 06:25:54 10° NNW 06:32:05 60° W 06:38:09 10° S
ADEOS Rocket 3.4 06:26:31 10° N 06:32:55 46° WNW 06:38:26 11° SW
Cosmos 1340 2.7 06:29:41 10° S 06:33:27 78° E 06:37:15 10° N
Cosmos 1174 3.7 06:33:02 10° NNW 06:36:10 66° ENE 06:39:51 10° SSE
Cosmos 2173 Rocket 4.4 06:31:15 10° NNW 06:36:45 37° W 06:42:19 10° SSW
Meteor 1-31 Rocket 2.8 06:33:39 10° NNE 06:37:36 83° E 06:41:32 10° S
ATLAS 5 CENTAUR R/B 4.1 06:41:00 15° SW 06:41:00 15° SW 06:42:51 10° SSW
Okean-O 2.9 06:37:55 10° N 06:42:08 45° WNW 06:46:21 10° SW
Cosmos 1626 Rocket 4.2 06:42:12 21° SW 06:44:19 33° W 06:48:15 10° NNW
CENTAUR R/B 3.1 06:37:02 10° NNW 06:45:06 75° WSW 06:53:25 10° SSE
Cosmos 2123 Rocket 4.2 06:40:58 10° SSW 06:46:51 47° W 06:52:47 10° N
Meteor PRIRODA 4.1 06:43:56 10° N 06:47:24 39° WNW 06:50:32 12° SW
BREEZE-M DEB (TANK) 4.4 06:46:24 10° NNW 06:48:49 26° NE 06:53:00 10° ESE
CZ-4B R/B 4.4 06:45:02 10° NNW 06:48:58 21° WNW 06:50:20 19° W
CSL-04 DEB 4.5 06:48:00 10° N 06:52:22 83° WNW 06:56:37 10° SSW
Cosmos 1125 Rocket 3.5 06:50:41 10° SSW 06:55:45 55° WNW 07:00:52 10° N
Delta 2 Rocket 3.6 06:57:51 19° W 07:00:19 42° SSW 07:03:43 10° SE
Cosmos 1842 4.2 06:57:41 10° S 07:01:27 52° E 07:05:14 10° NNE
Cosmos 1953 Rocket 3.7 07:00:02 10° S 07:04:28 80° E 07:08:58 10° N
CZ-4B R/B 4.2 07:03:39 10° N 07:07:10 38° WNW 07:10:35 10° SW
Cosmos 2098 Rocket 4.5 07:05:14 10° NW 07:09:06 25° W 07:13:43 10° SW
EXPRESS MD2 4.2 07:05:17 10° NW 07:09:14 86° NE 07:17:49 10° SE
SL-16 R/B 3.7 07:08:16 10° WNW 07:11:17 15° W 07:14:19 10° SW
USA 129 2.1 07:11:16 10° SSW 07:12:58 28° WSW 07:14:33 10° NW
Radarsat Rocket 4.0 07:07:48 10° N 07:14:09 73° WNW 07:19:59 10° SSW
Iridium 4 Rocket 3.3 07:09:16 10° S 07:14:12 88° W 07:18:43 10° N
DELTA 2 R/B (2) 3.6 07:15:55 14° W 07:17:10 35° NNW 07:18:53 10° NE
Cosmos 1758 Rocket 3.5 07:13:08 10° S 07:17:28 83° W 07:21:47 10° N
SKYMED 2 3.7 07:15:06 10° SSE 07:19:25 80° ENE 07:23:46 10° N
Cosmos 2084 Rocket 3.5 07:16:10 10° NNW 07:20:08 76° ENE 07:24:18 10° SSE
NOAA 6 4.5 07:21:56 10° N 07:26:46 41° WNW 07:31:35 10° SW
MOS 1 Rocket 4.5 07:24:06 10° NNW 07:28:12 26° WNW 07:32:28 10° SW
CSL-04 Debris 4.4 07:24:16 10° NNE 07:29:42 78° ESE 07:35:05 10° S
CSL-04 Rocket 3.6 07:26:21 10° N 07:31:39 83° WNW 07:36:59 10° SSW
